San Angelo, TX

5:26 PM CST on December 10, 2016 (GMT -0600)
San Angelo Regional-Mathis

Weather History for KSJT - January, 2013

Change the Weather History Date:

Friday, January 25, 2013

  Actual Average Record
Temperature  
Mean Temperature 61 °F 47 °F  
Max Temperature 75 °F 60 °F 82 °F (1950)
Min Temperature 47 °F 34 °F 4 °F (1926)
Degree Days  
Heating Degree Days 4 18  
Month to date heating degree days 474 469  
Since 1 July heating degree days 1199 1436  
Cooling Degree Days 0 0  
Month to date cooling degree days 1 0  
Year to date cooling degree days 1 0  
Growing Degree Days 12 (Base 50)    
Moisture  
Dew Point 45 °F    
Average Humidity 59    
Maximum Humidity 86    
Minimum Humidity 31    
Precipitation  
Precipitation 0.00 in 0.03 in 1.36 in (2012)
Month to date precipitation 1.40 0.73  
Year to date precipitation 1.40 0.73  
Snow  
Snow 0.00 in 0.00 in 4.90 in (1973)
Month to date snowfall 2.8 1.0  
Since 1 July snowfall 2.8 1.6  
Snow Depth 0.00 in    
Sea Level Pressure  
Sea Level Pressure 30.08 in    
Wind  
Wind Speed 9 mph (WNW)    
Max Wind Speed 16 mph    
Max Gust Speed 21 mph    
Visibility 10 miles    
Events      
T = Trace of Precipitation, MM = Missing Value Source: NWS Daily Summary

Daily Weather History Graph

Daily Weather History Graph

Search for Another Location

Airport or City:

Trip Planner

Search our weather history database for the weather conditions in past years. The results will help you decide how hot, cold, wet, or windy it might be!

Date:

Astronomy

Jan. 25, 2013 Rise Set
Actual Time 7:38 AM CST 6:11 PM CST
Civil Twilight 7:12 AM CST 6:36 PM CST
Nautical Twilight 6:43 AM CST 7:06 PM CST
Astronomical Twilight 6:14 AM CST 7:34 PM CST
Moon 5:09 PM CST (1/25) 6:18 AM CST (1/25)
Length of Visible Light 11h 24m
Length of Day
10h 32m
Waxing Gibbous, 98% of the Moon is Illuminated
Jan 25
Waxing Gibbous
Jan 26
Full
Feb 3
Last Quarter
Feb 10
New
Feb 17
First Quarter

Hourly Weather History & Observations

Time (CST) Temp. Dew Point Humidity Pressure Visibility Wind Dir Wind Speed Gust Speed Precip Events Conditions
12:51 AM 64.0 °F 53.1 °F 67% 30.04 in 10.0 mi SSW 13.8 mph - N/A   Clear
1:51 AM 64.0 °F 53.1 °F 67% 30.03 in 10.0 mi SSW 12.7 mph - N/A   Clear
2:51 AM 63.0 °F 53.1 °F 70% 30.02 in 10.0 mi SSW 12.7 mph - N/A   Clear
3:51 AM 60.1 °F 52.0 °F 75% 30.02 in 10.0 mi WSW 6.9 mph - N/A   Clear
4:51 AM 59.0 °F 52.0 °F 78% 30.01 in 10.0 mi SW 11.5 mph - N/A   Clear
5:51 AM 59.0 °F 52.0 °F 78% 30.02 in 10.0 mi SSW 13.8 mph - N/A   Clear
6:51 AM 55.9 °F 51.1 °F 84% 30.05 in 10.0 mi WSW 10.4 mph - N/A   Clear
7:51 AM 55.0 °F 51.1 °F 86% 30.08 in 10.0 mi WSW 6.9 mph - N/A   Clear
8:51 AM 57.9 °F 52.0 °F 81% 30.08 in 10.0 mi SSW 4.6 mph - N/A   Clear
9:51 AM 66.9 °F 53.1 °F 61% 30.09 in 10.0 mi WSW 11.5 mph - N/A   Clear
10:51 AM 72.0 °F 50.0 °F 46% 30.09 in 10.0 mi West 11.5 mph - N/A   Clear
11:11 AM 73.4 °F 42.8 °F 33% 30.14 in 10.0 mi NW 15.0 mph - N/A   Clear
11:51 AM 72.0 °F 44.1 °F 37% 30.09 in 10.0 mi West 6.9 mph - N/A   Clear
12:51 PM 73.9 °F 41.0 °F 30% 30.07 in 10.0 mi NNW 9.2 mph - N/A   Clear
1:51 PM 69.1 °F 44.1 °F 40% 30.06 in 10.0 mi NNE 10.4 mph - N/A   Clear
2:51 PM 68.0 °F 43.0 °F 40% 30.06 in 10.0 mi NE 6.9 mph - N/A   Clear
3:51 PM 69.1 °F 43.0 °F 39% 30.06 in 7.0 mi ENE 6.9 mph - N/A   Clear
4:51 PM 69.1 °F 42.1 °F 38% 30.06 in 10.0 mi NE 10.4 mph - N/A   Clear
5:51 PM 63.0 °F 39.9 °F 43% 30.08 in 10.0 mi ENE 9.2 mph - N/A   Clear
6:51 PM 57.0 °F 39.9 °F 53% 30.11 in 10.0 mi NE 6.9 mph - N/A   Clear
7:51 PM 54.0 °F 37.0 °F 53% 30.14 in 10.0 mi NE 11.5 mph - N/A   Clear
8:51 PM 52.0 °F 36.0 °F 54% 30.15 in 10.0 mi NE 9.2 mph - N/A   Clear
9:51 PM 51.1 °F 36.0 °F 56% 30.15 in 10.0 mi NE 4.6 mph - N/A   Clear
10:51 PM 50.0 °F 36.0 °F 59% 30.15 in 10.0 mi East 8.1 mph - N/A   Clear